This is the latest recevied weather packets stored in our database for station/object NK7E-1. If no packets are shown the sender has not sent any weather packets the latest 10 day(s).
| Time | Temp. | Humidity | Pressure | Rain* | Wind** | Luminosity | Snow |
|---|---|---|---|---|---|---|---|
| 1777870201 | 23.33° C | 28% | 1013.5 hPa | 0 mm | - | - | - |
| 1777869601 | 23.89° C | 27% | 1013.5 hPa | 0 mm | - | - | - |
| 1777869000 | 23.89° C | 26% | 1013.5 hPa | 0 mm | - | - | - |
| 1777868402 | 23.89° C | 26% | 1013.3 hPa | 0 mm | - | - | - |
| 1777867801 | 24.44° C | 25% | 1013.4 hPa | 0 mm | - | - | - |
| 1777867202 | 24.44° C | 25% | 1013.2 hPa | 0 mm | - | - | - |
| 1777866602 | 24.44° C | 24% | 1012.8 hPa | 0 mm | - | - | - |
| 1777866002 | 25° C | 23% | 1012.5 hPa | 0 mm | - | - | - |
| 1777865401 | 25° C | 22% | 1012.5 hPa | 0 mm | - | - | - |
| 1777864802 | 25° C | 20% | 1012.4 hPa | 0 mm | - | - | - |
| 1777864201 | 25.56° C | 20% | 1012.3 hPa | 0 mm | - | - | - |
| 1777863602 | 25.56° C | 19% | 1011.8 hPa | 0 mm | - | - | - |
| 1777863002 | 26.11° C | 19% | 1011.6 hPa | 0 mm | - | - | - |
| 1777862401 | 26.11° C | 18% | 1011.4 hPa | 0 mm | - | - | - |
| 1777861802 | 26.67° C | 16% | 1011.3 hPa | 0 mm | - | - | - |
| 1777861201 | 26.67° C | 16% | 1011.1 hPa | 0 mm | - | - | - |
| 1777860601 | 27.22° C | 16% | 1011 hPa | 0 mm | - | - | - |
| 1777860002 | 27.22° C | 15% | 1010.7 hPa | 0 mm | - | - | - |
| 1777859401 | 27.78° C | 14% | 1010.7 hPa | 0 mm | - | - | - |
| 1777858802 | 28.33° C | 13% | 1010.7 hPa | 0 mm | - | - | - |
| 1777858201 | 28.89° C | 12% | 1010.7 hPa | 0 mm | - | - | - |
| 1777857600 | 29.44° C | 12% | 1010.5 hPa | 0 mm | - | - | - |
| 1777857002 | 30.56° C | 11% | 1010.7 hPa | 0 mm | - | - | - |
| 1777856404 | 30.56° C | 11% | 1010.7 hPa | 0 mm | - | - | - |
| 1777855802 | 30.56° C | 11% | 1010.7 hPa | 0 mm | - | - | - |
* Rain latest hour (hover to see other rain measurements)
** Current wind speed in m/s (hover to see current wind gust speed)